Regional Weather Roundup
Issued by NWS

Home | Current Version | Previous Version | Text Only | Print | Product List | Glossary On
Versions: 1 2 3 4 5 6 7 8 9 10 11 12 13 14 15 16 17 18 19 20 21 22 23 24 25 26 27 28 29 30 31 32 33 34 35 36 37 38 39 40 41 42 43 44 45 46 47 48 49 50
000
ASUS44 KMEG 041310
RWRTN
TENNESSEE HOURLY STATE WEATHER ROUNDUP
NATIONAL WEATHER SERVICE MEMPHIS TN
800 AM CDT MON MAY 04 2015

TNZ002-004-019-021-049-052-054-088>092-041400-
WEST TENNESSEE

CITY           SKY/WX    TMP DP  RH WIND       PRES   REMARKS
MEMPHIS INTL   MOSUNNY   68  57  68 S10       30.20R
NWS MEMPHIS      N/A     68 N/A N/A MISG        N/A
JACKSON        SUNNY     68  54  60 SW10      30.20R
DYERSBURG      SUNNY     66  46  48 S3        30.20R
PARIS          PTSUNNY   63  52  67 S7        30.20R
LEXINGTON      SUNNY     63  55  77 CALM      30.21R
$$

TNZ008-025-027-028-033-062-065-066-041400-
NORTH MIDDLE TENNESSEE

CITY           SKY/WX    TMP DP  RH WIND       PRES   REMARKS
NASHVILLE      MOSUNNY   64  54  69 S5        30.24R
CLARKSVILLE    MOSUNNY   66  52  60 SW9       30.20R
SMYRNA         SUNNY     62  53  72 CALM      30.25R
COOKEVILLE     SUNNY     64  55  72 CALM      30.25R
CROSSVILLE     SUNNY     66  48  52 VRB3      30.29R
$$

TNZ061-075-076-078-094-096-097-041400-
SOUTH MIDDLE TENNESSEE

CITY           SKY/WX    TMP DP  RH WIND       PRES   REMARKS
FAYETTEVILLE   SUNNY     64  52  63 S5        30.26R
TULLAHOMA      SUNNY     63  52  67 CALM      30.27R
WINCHESTER     SUNNY     64  54  68 SE5       30.26R
MCMINNVILLE    SUNNY     59  57  94 CALM      30.26R
COLUMBIA       SUNNY     63  55  77 CALM      30.22R
SHELBYVILLE    SUNNY     64  55  72 CALM      30.26R
$$

TNZ017-018-042-046-047-041400-
NORTHEAST TENNESSEE

CITY           SKY/WX    TMP DP  RH WIND       PRES   REMARKS
TRI CITIES     SUNNY     60  50  69 VRB3      30.30R
ELIZABETHTON   SUNNY     59  48  67 E3        30.31S
$$

TNZ012-013-036-069-073-074-041400-
CENTRAL EAST TENNESSEE

CITY           SKY/WX    TMP DP  RH WIND       PRES   REMARKS
KNOXVILLE      SUNNY     60  52  74 CALM      30.27R
OAK RIDGE      SUNNY     59  51  75 CALM      30.29R
GATLINBURG     SUNNY     61  50  67 CALM      30.27S
MORRISTOWN     SUNNY     63  54  72 CALM      30.29R
$$

TNZ083-085-099-041400-
SOUTHEAST TENNESSEE

CITY           SKY/WX    TMP DP  RH WIND       PRES   REMARKS
CHATTANOOGA    SUNNY     60  53  77 CALM      30.28R
$$

SKY/WX REPORTED AS FAIR MEANS FEW OR NO CLOUDS BELOW
12 THOUSAND FEET.



USA.gov is the U.S. government's official web portal to all federal, state and local government web resources and services.